INTELSAT 33E DEB, 64408

Orbit data source: Space-Track

INTELSAT 33E DEB, 64408 is space debris in GEO originally from a launch on Wed, 24 Aug 2016 UTC launched from the French Guiana (FRGUI). Debris objects in space refer to the collection of defunct objects orbiting the Earth. Examples of debris include non-operational satellites, rocket bodies, and fragments generated from explosions, collisions, or faulty payload assembly.

Not visible in the next 10 days
Identifier
64408, 2016-053AN
Orbit
GEO
Country
Flag of USUS / ITSO
Related business
Manufacturer
Boeing/ES
Mission
Spacecraft
Bus & Motor
Unknown
Mass
Unknown
Launch date (UTC)
2016-08-24 (10 years ago)
Launch vehicle
Unknown
Launch site
French Guiana (FRGUI)
Object type
Payload
Rocket body
Debris
Shape & HBR
Unknown shape, 1.1 m
Radar Cross Section
RCS unknown

Expand to show TLE details & history
Last TLE update: 1 day ago

TLE from 1 day ago
0 INTELSAT 33E DEB
1 64408U 16053AN  26170.48856644 -.00000037  00000-0  00000-0 0  9999
2 64408   2.6835  88.5935 1715823 331.7805  19.6077  1.03222965  6107
Epoch: 2026-06-19T11:43Z
TLE epoch observation values (Epoch: 2026-06-19T11:43:32.140Z)
Latitude
0.00001°
Longitude
4.55143°
Altitude
28,448.668 km
Speed
3.64 km/s
True Right ascension
05h 52m 36s
True Declination
0° 00' 00"
Sunlit
Object was in daylight at epoch
Visualization orbit readout
Latitude
Unknown
Longitude
Unknown
Altitude
Unknown
Speed
Unknown
Apparent Right ascension
Unknown
Apparent Declination
Unknown
Sunlit
N/A
Visualization observer readout
Local Sidereal Time
07:20:49
Azimuth
Unknown
Elevation
Unknown
Doppler factor
Unknown
Orbital elements
Apogee altitude
42,076.537 km
Perigee altitude
27,883.826 km
Semi-major axis
41,358.319 km
Eccentricity
0.17158
Inclination
2.6835°
RAAN
88.5935°
Arg. of periapsis
331.7805°
True anomaly
27.82589°
Mean anomaly
19.6077°
Eccentric anomaly
23.53297°
Mean motion
0.25805 °/min
Orbital period
1,395.09 mins
BSTAR
0
Loading maneuver chart data...
Computing Atmospheric mass density...
Loading historical data...
Loading historical data...
Loading historical data...
Loading historical data...
Loading historical data...
Loading historical data...
Loading historical data...

Documentation

Showing up to 5 results
|